Minot AFB, ND

10:57 AM CST on December 14, 2019 (GMT -0600)
Minot Air Force Base

Weather History for KMIB - November, 2019

Change the Weather History Date:

Friday, November 15, 2019

  Actual Average Record
Temperature  
Mean Temperature 32 °F -  
Max Temperature 33 °F 33 °F 63 °F (2015)
Min Temperature 31 °F 15 °F -2 °F (2002)
Degree Days  
Heating Degree Days 33    
Moisture  
Dew Point 31 °F    
Average Humidity 95    
Maximum Humidity 100    
Minimum Humidity 93    
Precipitation  
Precipitation 0.00 in - - ()
Sea Level Pressure  
Sea Level Pressure 30.12 in    
Wind  
Wind Speed 9 mph (SE)    
Max Wind Speed 17 mph    
Max Gust Speed -    
Visibility 3 miles    
Events Fog    
Averages and records for this station are not official NWS values.
T = Trace of Precipitation, MM = Missing Value Source: NWS Daily Summary

Daily Weather History Graph

Daily Weather History Graph

Search for Another Location

Airport or City:

Astronomy

Nov. 15, 2019 Rise Set
Actual Time 7:52 AM CST 5:06 PM CST
Civil Twilight 7:18 AM CST 5:40 PM CST
Nautical Twilight 6:40 AM CST 6:18 PM CST
Astronomical Twilight 6:03 AM CST 6:55 PM CST
Moon 7:34 PM CST (11/15) 11:00 AM CST (11/15)
Length of Visible Light 10h 22m
Length of Day
9h 13m
Waning Gibbous, 90% of the Moon is Illuminated
Nov 15
Waning Gibbous
Nov 19
Last Quarter
Nov 26
New
Dec 4
First Quarter
Dec 11
Full

Hourly Weather History & Observations

Time (CST) Temp. Windchill Dew Point Humidity Pressure Visibility Wind Dir Wind Speed Gust Speed Precip Events Conditions
12:56 AM 31.8 °F 27.3 °F 30.0 °F 93% 30.20 in 7.0 mi ESE 4.6 mph - N/A   Overcast
1:01 AM 32.0 °F 27.5 °F 30.2 °F 93% 30.20 in 7.0 mi ESE 4.6 mph - N/A   Overcast
1:58 AM 32.0 °F 27.5 °F 30.2 °F 93% 30.19 in 6.0 mi SE 4.6 mph - N/A   Overcast
2:18 AM 32.0 °F 25.6 °F 30.2 °F 93% 30.17 in 5.0 mi SE 6.9 mph - N/A   Overcast
2:48 AM 32.0 °F 25.6 °F 30.2 °F 93% 30.19 in 4.0 mi ESE 6.9 mph - N/A   Overcast
2:56 AM 31.6 °F 25.1 °F 30.0 °F 94% 30.18 in 3.0 mi ESE 6.9 mph - N/A   Overcast
3:16 AM 32.0 °F 24.8 °F 30.2 °F 93% 30.18 in 2.2 mi ESE 8.1 mph - N/A   Overcast
3:26 AM 32.0 °F 25.6 °F 30.2 °F 93% 30.18 in 1.9 mi SE 6.9 mph - N/A   Overcast
3:36 AM 32.0 °F 25.6 °F 30.2 °F 93% 30.18 in 1.5 mi ESE 6.9 mph - N/A   Overcast
3:46 AM 32.0 °F 25.6 °F 30.2 °F 93% 30.18 in 1.6 mi SE 6.9 mph - N/A   Overcast
3:56 AM 31.6 °F 25.1 °F 30.4 °F 95% 30.18 in 2.0 mi ESE 6.9 mph - N/A   Overcast
4:26 AM 32.0 °F 25.6 °F 30.2 °F 93% 30.18 in 1.9 mi SE 6.9 mph - N/A   Overcast
4:46 AM 32.0 °F 24.8 °F 30.2 °F 93% 30.19 in 1.5 mi SE 8.1 mph - N/A   Overcast
4:56 AM 31.6 °F 25.1 °F 30.4 °F 95% 30.19 in 1.1 mi SE 6.9 mph - N/A   Overcast
5:16 AM 32.0 °F 24.8 °F 30.2 °F 93% 30.19 in 1.2 mi SE 8.1 mph - N/A   Overcast
5:26 AM 32.0 °F 25.6 °F 30.2 °F 93% 30.19 in 0.9 mi ESE 6.9 mph - N/A   Overcast
5:41 AM 32.0 °F 24.8 °F 30.2 °F 93% 30.19 in 0.9 mi SE 8.1 mph - N/A   Overcast
5:51 AM 32.0 °F 24.2 °F 30.2 °F 93% 30.19 in 0.8 mi SE 9.2 mph - N/A   Overcast
5:56 AM 31.6 °F 23.7 °F 30.6 °F 96% 30.19 in 0.8 mi SE 9.2 mph - N/A   Overcast
6:06 AM 32.0 °F 23.0 °F 30.2 °F 93% 30.18 in 0.9 mi SE 11.5 mph - N/A   Overcast
6:38 AM 32.0 °F 24.2 °F 30.2 °F 93% 30.18 in 0.8 mi ESE 9.2 mph - N/A   Light Freezing Drizzle
6:56 AM 31.6 °F 22.6 °F 30.6 °F 96% 30.17 in 0.8 mi ESE 11.5 mph - N/A   Light Freezing Drizzle
7:27 AM 32.0 °F 24.2 °F 30.2 °F 93% 30.17 in 0.8 mi ESE 9.2 mph - N/A   Light Freezing Drizzle
7:56 AM 31.8 °F 22.8 °F 30.7 °F 96% 30.17 in 0.4 mi SE 11.5 mph - N/A Fog Light Freezing Drizzle
8:07 AM 32.0 °F 22.5 °F 30.2 °F 93% 30.17 in 0.4 mi SE 12.7 mph - N/A Fog Light Freezing Drizzle
8:56 AM 31.8 °F 21.0 °F 31.1 °F 97% 30.17 in 0.4 mi SE 16.1 mph - 0.00 in Fog Light Freezing Drizzle
9:56 AM 31.5 °F 20.9 °F 30.7 °F 97% 30.17 in 0.2 mi SE 15.0 mph - 0.00 in Fog Light Freezing Drizzle
9:57 AM 31.5 °F 21.4 °F 30.7 °F 97% 30.17 in 0.1 mi SE 13.8 mph - 0.00 in Fog Light Freezing Drizzle
9:58 AM 32.0 °F 21.6 °F 30.2 °F 93% 30.17 in 0.1 mi SE 15.0 mph - N/A Fog Heavy Freezing Drizzle
10:01 AM 32.0 °F 21.6 °F 30.2 °F 93% 30.17 in 0.1 mi SE 15.0 mph - N/A Fog Light Freezing Drizzle
10:56 AM 31.3 °F 22.1 °F 30.6 °F 97% 30.17 in 0.2 mi SSE 11.5 mph - 0.00 in Fog Light Freezing Drizzle
11:56 AM 31.1 °F 20.9 °F 30.4 °F 97% 30.16 in 0.4 mi SE 13.8 mph - 0.00 in Fog Light Freezing Drizzle
1:56 PM 32.2 °F 21.4 °F 31.5 °F 97% 30.12 in 2.5 mi SE 16.1 mph - 0.00 in   Overcast
2:47 PM 32.0 °F 22.1 °F 32.0 °F 100% 30.10 in 3.0 mi SE 13.8 mph - N/A   Overcast
2:56 PM 32.5 °F 22.3 °F 31.8 °F 97% 30.10 in 4.0 mi SE 15.0 mph - 0.00 in   Overcast
3:56 PM 32.7 °F 21.8 °F 32.0 °F 97% 30.08 in 5.0 mi SE 17.3 mph - N/A   Overcast
4:56 PM 33.1 °F 22.2 °F 32.4 °F 97% 30.06 in 5.0 mi SE 17.3 mph - N/A   Overcast
5:56 PM 32.0 °F 23.0 °F 30.2 °F 93% 29.99 in 5.0 mi ESE 11.5 mph - N/A   Overcast
7:41 PM 33.8 °F 23.9 °F 32.0 °F 93% 30.01 in 4.0 mi SSE 15.0 mph - N/A   Overcast
7:56 PM 33.4 °F 24.3 °F 32.7 °F 97% 30.01 in 4.0 mi SSE 12.7 mph - N/A   Overcast
8:56 PM 33.3 °F 24.6 °F 32.5 °F 97% 30.00 in 4.0 mi SSE 11.5 mph - N/A   Overcast
9:26 PM 33.8 °F 25.3 °F 32.0 °F 93% 29.99 in 6.0 mi SSE 11.5 mph - N/A   Overcast
9:56 PM 33.6 °F 25.0 °F 32.9 °F 97% 29.99 in 7.0 mi SSE 11.5 mph - N/A   Overcast
10:11 PM 33.8 °F 24.8 °F 33.8 °F 100% 29.98 in 7.0 mi SSE 12.7 mph - N/A   Overcast
10:56 PM 33.4 °F 24.8 °F 32.7 °F 97% 29.95 in 7.0 mi SSE 11.5 mph - N/A   Overcast
11:06 PM 33.8 °F 25.8 °F 32.0 °F 93% 29.95 in 7.0 mi SSE 10.4 mph - N/A   Overcast
11:31 PM 33.8 °F 24.8 °F 32.0 °F 93% 29.91 in 6.0 mi SE 12.7 mph - N/A   Overcast
11:51 PM 33.8 °F 24.8 °F 32.0 °F 93% 29.91 in 6.0 mi SSE 12.7 mph - N/A   Mostly Cloudy
11:56 PM 33.4 °F 25.4 °F 32.7 °F 97% 29.91 in 6.0 mi SSE 10.4 mph - N/A   Mostly Cloudy